Location: Newark
(44.3681°N, 100.3364°W)
Time: 13:44:34
(UTC+00:00)

deb Explorer IX - Pass Details

Date: 18 February 2020
Orbit: 547 x 1100 km, 38.8° (Epoch: 06 April)

Event Time Altitude Azimuth Distance (km) Brightness Sun altitude
Rises 00:40:11 0° 264° (W) 2,919 ? -5.6°
Reaches altitude 10° 00:43:43 10° 235° (SW) 2,117 ? -6.2°
Maximum altitude 00:45:49 13° 209° (SSW) 2,008 ? -6.6°
Drops below altitude 10° 00:48:02 10° 184° (S) 2,262 ? -7.0°
Sets 00:52:07 0° 157° (SSE) 3,335 ? -7.7°
